Time,TemperatureF,DewpointF,PressureIn,WindDirection,WindDirectionDegrees,WindSpeedMPH,WindSpeedGustMPH,Humidity,HourlyPrecipIn,Conditions,Clouds,dailyrainin,SoftwareType,DateUTC
2013-01-16 00:02:00,15.0,10.0,-100.00,SSE,161,4.0,7.0,81,0.00,,,0.00,,2013-01-16 06:02:00,
2013-01-16 00:12:00,15.0,10.0,-100.00,SSE,161,4.0,7.0,81,0.00,,,0.00,,2013-01-16 06:12:00,
2013-01-16 00:22:00,15.0,10.0,-100.00,SSE,161,4.0,7.0,81,0.00,,,0.00,,2013-01-16 06:22:00,
2013-01-16 00:53:00,15.0,10.0,-100.00,South,177,7.0,10.0,81,0.00,,,0.00,,2013-01-16 06:53:00,
2013-01-16 01:02:00,15.0,10.0,-100.00,South,177,7.0,10.0,81,0.00,,,0.00,,2013-01-16 07:02:00,
2013-01-16 01:12:00,15.0,10.0,-100.00,South,177,7.0,10.0,81,0.00,,,0.00,,2013-01-16 07:12:00,
2013-01-16 01:22:00,15.0,10.0,-100.00,South,177,7.0,10.0,81,0.00,,,0.00,,2013-01-16 07:22:00,
2013-01-16 01:52:00,15.0,10.0,-100.00,South,169,6.0,10.0,81,0.00,,,0.00,,2013-01-16 07:52:00,
2013-01-16 02:02:00,15.0,10.0,-100.00,South,169,6.0,10.0,81,0.00,,,0.00,,2013-01-16 08:02:00,
2013-01-16 02:12:00,15.0,10.0,-100.00,South,169,6.0,10.0,81,0.00,,,0.00,,2013-01-16 08:12:00,
2013-01-16 02:22:00,15.0,10.0,-100.00,South,169,6.0,10.0,81,0.00,,,0.00,,2013-01-16 08:22:00,
2013-01-16 02:53:00,16.0,10.0,-100.00,South,186,8.0,10.0,77,0.00,,,0.00,,2013-01-16 08:53:00,
2013-01-16 03:02:00,16.0,10.0,-100.00,South,186,8.0,10.0,77,0.00,,,0.00,,2013-01-16 09:02:00,
2013-01-16 03:12:00,16.0,10.0,-100.00,South,186,8.0,10.0,77,0.00,,,0.00,,2013-01-16 09:12:00,
2013-01-16 03:22:00,16.0,10.0,-100.00,South,186,8.0,10.0,77,0.00,,,0.00,,2013-01-16 09:22:00,
2013-01-16 03:53:00,17.0,10.0,-100.00,SSW,195,8.0,13.0,75,0.00,,,0.00,,2013-01-16 09:53:00,
2013-01-16 04:02:00,17.0,10.0,-100.00,SSW,195,8.0,13.0,75,0.00,,,0.00,,2013-01-16 10:02:00,
2013-01-16 04:12:00,17.0,10.0,-100.00,SSW,195,8.0,13.0,75,0.00,,,0.00,,2013-01-16 10:12:00,
2013-01-16 04:22:00,17.0,10.0,-100.00,SSW,195,8.0,13.0,75,0.00,,,0.00,,2013-01-16 10:22:00,
2013-01-16 04:53:00,16.0,9.0,-100.00,South,186,10.0,15.0,75,0.00,,,0.00,,2013-01-16 10:53:00,
2013-01-16 05:02:00,16.0,9.0,-100.00,South,186,10.0,15.0,75,0.00,,,0.00,,2013-01-16 11:02:00,
2013-01-16 05:12:00,16.0,9.0,-100.00,South,186,10.0,15.0,75,0.00,,,0.00,,2013-01-16 11:12:00,
2013-01-16 05:22:00,16.0,9.0,-100.00,South,186,10.0,15.0,75,0.00,,,0.00,,2013-01-16 11:22:00,
2013-01-16 05:53:00,16.0,9.0,-100.00,SSW,194,11.0,15.0,73,0.00,,,0.00,,2013-01-16 11:53:00,
2013-01-16 06:03:00,16.0,9.0,-100.00,SSW,194,11.0,15.0,73,0.00,,,0.00,,2013-01-16 12:03:00,
2013-01-16 06:13:00,16.0,9.0,-100.00,SSW,194,11.0,15.0,73,0.00,,,0.00,,2013-01-16 12:13:00,
2013-01-16 06:22:00,16.0,9.0,-100.00,SSW,194,11.0,15.0,73,0.00,,,0.00,,2013-01-16 12:22:00,
2013-01-16 06:53:00,17.0,9.0,-100.00,SSW,192,13.0,19.0,71,0.00,,,0.00,,2013-01-16 12:53:00,
2013-01-16 07:03:00,17.0,9.0,-100.00,SSW,192,13.0,19.0,71,0.00,,,0.00,,2013-01-16 13:03:00,
2013-01-16 07:12:00,17.0,9.0,-100.00,SSW,192,13.0,19.0,71,0.00,,,0.00,,2013-01-16 13:12:00,
2013-01-16 07:22:00,17.0,9.0,-100.00,SSW,192,13.0,19.0,71,0.00,,,0.00,,2013-01-16 13:22:00,
2013-01-16 07:53:00,19.0,10.0,-100.00,SSW,202,13.0,20.0,67,0.00,,,0.00,,2013-01-16 13:53:00,
2013-01-16 08:03:00,19.0,10.0,-100.00,SSW,202,13.0,20.0,67,0.00,,,0.00,,2013-01-16 14:03:00,
2013-01-16 08:12:00,19.0,10.0,-100.00,SSW,202,13.0,20.0,67,0.00,,,0.00,,2013-01-16 14:12:00,
2013-01-16 08:23:00,19.0,10.0,-100.00,SSW,202,13.0,20.0,67,0.00,,,0.00,,2013-01-16 14:23:00,
2013-01-16 08:53:00,22.0,12.0,-100.00,SSW,211,14.0,25.0,65,0.00,,,0.00,,2013-01-16 14:53:00,
2013-01-16 09:03:00,22.0,12.0,-100.00,SSW,211,14.0,25.0,65,0.00,,,0.00,,2013-01-16 15:03:00,
2013-01-16 09:12:00,22.0,12.0,-100.00,SSW,211,14.0,25.0,65,0.00,,,0.00,,2013-01-16 15:12:00,
2013-01-16 09:23:00,22.0,12.0,-100.00,SSW,211,14.0,25.0,65,0.00,,,0.00,,2013-01-16 15:23:00,
2013-01-16 09:53:00,24.0,15.0,-100.00,SW,214,12.0,26.0,67,0.00,,,0.00,,2013-01-16 15:53:00,
2013-01-16 10:03:00,24.0,15.0,-100.00,SW,214,12.0,26.0,67,0.00,,,0.00,,2013-01-16 16:03:00,
2013-01-16 10:12:00,24.0,15.0,-100.00,SW,214,12.0,26.0,67,0.00,,,0.00,,2013-01-16 16:12:00,
2013-01-16 10:22:00,24.0,15.0,-100.00,SW,214,12.0,26.0,67,0.00,,,0.00,,2013-01-16 16:22:00,
2013-01-16 10:53:00,26.0,16.0,-100.00,SW,226,13.0,23.0,64,0.00,,,0.00,,2013-01-16 16:53:00,
2013-01-16 11:03:00,26.0,16.0,-100.00,SW,226,13.0,23.0,64,0.00,,,0.00,,2013-01-16 17:03:00,
2013-01-16 11:12:00,26.0,16.0,-100.00,SW,226,13.0,23.0,64,0.00,,,0.00,,2013-01-16 17:12:00,
2013-01-16 11:22:00,26.0,16.0,-100.00,SW,226,13.0,23.0,64,0.00,,,0.00,,2013-01-16 17:22:00,
2013-01-16 11:53:00,28.0,18.0,-100.00,WSW,246,17.0,26.0,65,0.00,,,0.00,,2013-01-16 17:53:00,
2013-01-16 12:03:00,28.0,18.0,-100.00,WSW,246,17.0,26.0,65,0.00,,,0.00,,2013-01-16 18:03:00,
2013-01-16 12:13:00,28.0,18.0,-100.00,WSW,246,17.0,26.0,65,0.00,,,0.00,,2013-01-16 18:13:00,
2013-01-16 12:23:00,28.0,18.0,-100.00,WSW,246,17.0,26.0,65,0.00,,,0.00,,2013-01-16 18:23:00,
2013-01-16 12:53:00,30.0,21.0,-100.00,WSW,256,13.0,25.0,69,0.00,,,0.00,,2013-01-16 18:53:00,
2013-01-16 13:03:00,30.0,21.0,-100.00,WSW,256,13.0,25.0,69,0.00,,,0.00,,2013-01-16 19:03:00,
2013-01-16 13:12:00,30.0,21.0,-100.00,WSW,256,13.0,25.0,69,0.00,,,0.00,,2013-01-16 19:12:00,
2013-01-16 13:23:00,30.0,21.0,-100.00,WSW,256,13.0,25.0,69,0.00,,,0.00,,2013-01-16 19:23:00,
2013-01-16 13:53:00,30.0,24.0,-100.00,WSW,249,11.0,22.0,77,0.00,,,0.00,,2013-01-16 19:53:00,
2013-01-16 14:03:00,30.0,24.0,-100.00,WSW,249,11.0,22.0,77,0.00,,,0.00,,2013-01-16 20:03:00,
2013-01-16 14:12:00,30.0,24.0,-100.00,WSW,249,11.0,22.0,77,0.00,,,0.00,,2013-01-16 20:12:00,
2013-01-16 14:23:00,30.0,24.0,-100.00,WSW,249,11.0,22.0,77,0.00,,,0.00,,2013-01-16 20:23:00,
2013-01-16 14:53:00,30.0,24.0,-100.00,WSW,254,12.0,17.0,78,0.00,,,0.00,,2013-01-16 20:53:00,
2013-01-16 15:03:00,30.0,24.0,-100.00,WSW,254,12.0,17.0,78,0.00,,,0.00,,2013-01-16 21:03:00,
2013-01-16 15:12:00,30.0,24.0,-100.00,WSW,254,12.0,17.0,78,0.00,,,0.00,,2013-01-16 21:12:00,
2013-01-16 15:22:00,30.0,24.0,-100.00,WSW,254,12.0,17.0,78,0.00,,,0.00,,2013-01-16 21:22:00,
2013-01-16 15:53:00,31.0,24.0,-100.00,West,272,11.0,19.0,76,0.00,,,0.00,,2013-01-16 21:53:00,
2013-01-16 16:03:00,31.0,24.0,-100.00,West,272,11.0,19.0,76,0.00,,,0.00,,2013-01-16 22:03:00,
2013-01-16 16:12:00,31.0,24.0,-100.00,West,272,11.0,19.0,76,0.00,,,0.00,,2013-01-16 22:12:00,
2013-01-16 16:23:00,31.0,24.0,-100.00,West,272,11.0,19.0,76,0.00,,,0.00,,2013-01-16 22:23:00,
2013-01-16 16:53:00,31.0,26.0,-100.00,West,274,9.0,16.0,81,0.00,,,0.00,,2013-01-16 22:53:00,
2013-01-16 17:03:00,31.0,26.0,-100.00,West,274,9.0,16.0,81,0.00,,,0.00,,2013-01-16 23:03:00,
2013-01-16 17:12:00,31.0,26.0,-100.00,West,274,9.0,16.0,81,0.00,,,0.00,,2013-01-16 23:12:00,
2013-01-16 17:23:00,31.0,26.0,-100.00,West,274,9.0,16.0,81,0.00,,,0.00,,2013-01-16 23:23:00,
2013-01-16 17:53:00,31.0,27.0,-100.00,West,275,6.0,11.0,85,0.00,,,0.00,,2013-01-16 23:53:00,
2013-01-16 18:02:00,31.0,27.0,-100.00,West,275,6.0,11.0,85,0.00,,,0.00,,2013-01-17 00:02:00,
2013-01-16 18:12:00,31.0,27.0,-100.00,West,275,6.0,11.0,85,0.00,,,0.00,,2013-01-17 00:12:00,
2013-01-16 18:22:00,31.0,27.0,-100.00,West,275,6.0,11.0,85,0.00,,,0.00,,2013-01-17 00:22:00,
2013-01-16 18:52:00,31.0,28.0,-100.00,West,278,6.0,10.0,89,0.00,,,0.00,,2013-01-17 00:52:00,
2013-01-16 19:02:00,31.0,28.0,-100.00,West,278,6.0,10.0,89,0.00,,,0.00,,2013-01-17 01:02:00,
2013-01-16 19:12:00,31.0,28.0,-100.00,West,278,6.0,10.0,89,0.00,,,0.00,,2013-01-17 01:12:00,
2013-01-16 19:22:00,31.0,28.0,-100.00,West,278,6.0,10.0,89,0.00,,,0.00,,2013-01-17 01:22:00,
2013-01-16 19:52:00,30.0,28.0,-100.00,WNW,297,6.0,7.0,91,0.00,,,0.00,,2013-01-17 01:52:00,
2013-01-16 20:02:00,30.0,28.0,-100.00,WNW,297,6.0,7.0,91,0.00,,,0.00,,2013-01-17 02:02:00,
2013-01-16 20:12:00,30.0,28.0,-100.00,WNW,297,6.0,7.0,91,0.00,,,0.00,,2013-01-17 02:12:00,
2013-01-16 20:22:00,30.0,28.0,-100.00,WNW,297,6.0,7.0,91,0.00,,,0.00,,2013-01-17 02:22:00,
2013-01-16 21:03:00,31.0,29.0,-100.00,NW,307,6.0,10.0,91,0.00,,,0.00,,2013-01-17 03:03:00,
2013-01-16 21:12:00,31.0,29.0,-100.00,NW,307,6.0,10.0,91,0.00,,,0.00,,2013-01-17 03:12:00,
2013-01-16 21:22:00,31.0,29.0,-100.00,NW,307,6.0,10.0,91,0.00,,,0.00,,2013-01-17 03:22:00,
2013-01-16 21:53:00,28.0,27.0,-100.00,NW,304,5.0,7.0,94,0.00,,,0.00,,2013-01-17 03:53:00,
2013-01-16 22:02:00,28.0,27.0,-100.00,NW,304,5.0,7.0,94,0.00,,,0.00,,2013-01-17 04:02:00,
2013-01-16 22:12:00,28.0,27.0,-100.00,NW,304,5.0,7.0,94,0.00,,,0.00,,2013-01-17 04:12:00,
2013-01-16 22:22:00,28.0,27.0,-100.00,NW,304,5.0,7.0,94,0.00,,,0.00,,2013-01-17 04:22:00,
2013-01-16 22:52:00,27.0,20.0,-100.00,NW,319,8.0,19.0,74,0.00,,,0.00,,2013-01-17 04:52:00,
2013-01-16 23:04:00,27.0,20.0,-100.00,NW,319,8.0,19.0,74,0.00,,,0.00,,2013-01-17 05:04:00,
2013-01-16 23:12:00,27.0,20.0,-100.00,NW,319,8.0,19.0,74,0.00,,,0.00,,2013-01-17 05:12:00,
2013-01-16 23:22:00,27.0,20.0,-100.00,NW,319,8.0,19.0,74,0.00,,,0.00,,2013-01-17 05:22:00,
2013-01-16 23:53:00,24.0,16.0,-100.00,NNW,327,5.0,14.0,70,0.00,,,0.00,,2013-01-17 05:53:00,